ARG1301 SAZM-SUMU

Flight info

Callsign ARG1301
Flight time 0h 27m
Altitude 29000
Route ROPIS1D ROPIS UM792 DARKA
Aircraft A319/M-SDE3FGHIRWY/LB1

Departure

Time 2026-04-25 23:52
Airport Ástor Piazzola International Airport (SAZM)

Arrival

Time 2026-04-26 00:19
Airport Carrasco General Cesáreo L. Berisso International Airport (SUMU)
Time Latitude Longitude Altitude Speed Heading
2026-04-25 23:49 -37.93419 -57.57968 54 ft 0 kts 301°
2026-04-25 23:50 -37.93416 -57.57976 52 ft 3 kts 301°
2026-04-25 23:51 -37.93389 -57.58020 52 ft 9 kts 327°
2026-04-25 23:51 -37.93307 -57.58030 54 ft 15 kts 354°
2026-04-25 23:51 -37.93190 -57.58009 51 ft 20 kts 28°
2026-04-25 23:51 -37.93144 -57.57892 54 ft 24 kts 108°
2026-04-25 23:52 -37.93406 -57.57353 50 ft 118 kts 123°
2026-04-25 23:52 -37.93951 -57.56273 398 ft 158 kts 120°
2026-04-25 23:52 -37.94513 -57.55096 1333 ft 156 kts 118°
2026-04-25 23:52 -37.94973 -57.53819 1978 ft 169 kts 96°
2026-04-25 23:53 -37.94704 -57.52294 2364 ft 195 kts 59°
2026-04-25 23:53 -37.93811 -57.50872 2876 ft 221 kts 46°
2026-04-25 23:53 -37.92385 -57.49882 3411 ft 250 kts 22°
2026-04-25 23:53 -37.90702 -57.49124 4261 ft 262 kts 20°
2026-04-25 23:54 -37.88966 -57.48363 5285 ft 267 kts 20°
2026-04-25 23:54 -37.87200 -57.47590 6297 ft 272 kts 19°
2026-04-25 23:54 -37.85406 -57.46801 7316 ft 275 kts 19°
2026-04-25 23:54 -37.83593 -57.45998 8374 ft 277 kts 19°
2026-04-25 23:55 -37.81776 -57.45184 9417 ft 279 kts 19°
2026-04-25 23:55 -37.79945 -57.44357 10377 ft 285 kts 17°
2026-04-25 23:55 -37.78004 -57.43486 10781 ft 309 kts 15°
2026-04-25 23:55 -37.75901 -57.42549 11122 ft 333 kts 14°
2026-04-25 23:56 -37.73644 -57.41544 11428 ft 357 kts 15°
2026-04-25 23:56 -37.71259 -57.40477 11994 ft 369 kts 15°
2026-04-25 23:56 -37.68835 -57.39370 12737 ft 374 kts 15°
2026-04-25 23:56 -37.66386 -57.38225 13527 ft 379 kts 15°
2026-04-25 23:57 -37.63908 -57.37057 14290 ft 382 kts 15°
2026-04-25 23:57 -37.61408 -57.35876 15045 ft 386 kts 15°
2026-04-25 23:57 -37.58888 -57.34688 15764 ft 390 kts 15°
2026-04-25 23:57 -37.56341 -57.33493 16488 ft 392 kts 15°
2026-04-25 23:58 -37.53775 -57.32297 17173 ft 396 kts 15°
2026-04-25 23:58 -37.51180 -57.31096 17838 ft 400 kts 15°
2026-04-25 23:58 -37.48563 -57.29891 18493 ft 403 kts 14°
2026-04-25 23:58 -37.45924 -57.28677 19133 ft 407 kts 14°
2026-04-25 23:59 -37.38499 -57.25248 20761 ft 417 kts 14°
2026-04-25 23:59 -37.27440 -57.20149 22823 ft 431 kts 14°
2026-04-25 23:59 -37.16017 -57.14907 24629 ft 444 kts 14°
2026-04-25 23:59 -37.04293 -57.09544 26299 ft 454 kts 13°
2026-04-26 00:00 -36.92331 -57.04080 27758 ft 463 kts 12°
2026-04-26 00:00 -36.80150 -56.98550 29033 ft 471 kts 11°
2026-04-26 00:00 -36.68056 -56.92904 29030 ft 469 kts 12°
2026-04-26 00:00 -36.56081 -56.86797 28918 ft 471 kts 12°
2026-04-26 00:01 -36.44040 -56.80819 28824 ft 473 kts 12°
2026-04-26 00:01 -36.19936 -56.68889 28750 ft 467 kts 11°
2026-04-26 00:02 -35.95828 -56.57039 28456 ft 462 kts 11°
2026-04-26 00:02 -35.84564 -56.51474 27416 ft 413 kts 10°
2026-04-26 00:02 -35.74397 -56.46537 26318 ft 383 kts
2026-04-26 00:02 -35.64586 -56.41808 24552 ft 375 kts 10°
2026-04-26 00:03 -35.62052 -56.40574 24040 ft 371 kts 12°
2026-04-26 00:03 -35.59670 -56.39413 23338 ft 367 kts 12°
2026-04-26 00:03 -35.57314 -56.38267 22681 ft 363 kts 12°
2026-04-26 00:03 -35.54985 -56.37136 22017 ft 359 kts 12°
2026-04-26 00:04 -35.52676 -56.36016 21387 ft 355 kts 13°
2026-04-26 00:04 -35.50399 -56.34909 20758 ft 351 kts 13°
2026-04-26 00:04 -35.48152 -56.33820 20134 ft 346 kts 13°
2026-04-26 00:04 -35.45930 -56.32747 19525 ft 341 kts 13°
2026-04-26 00:05 -35.43735 -56.31689 18895 ft 338 kts 14°
2026-04-26 00:05 -35.41564 -56.30644 18298 ft 334 kts 14°
2026-04-26 00:05 -35.39416 -56.29609 17710 ft 330 kts 15°
2026-04-26 00:05 -35.37293 -56.28586 17115 ft 327 kts 15°
2026-04-26 00:06 -35.35188 -56.27573 16498 ft 325 kts 15°
2026-04-26 00:06 -35.33094 -56.26566 15891 ft 323 kts 15°
2026-04-26 00:06 -35.31015 -56.25559 15284 ft 322 kts 17°
2026-04-26 00:06 -35.29057 -56.24205 14688 ft 327 kts 32°
2026-04-26 00:07 -35.27259 -56.22474 13979 ft 335 kts 33°
2026-04-26 00:07 -35.25389 -56.20664 13047 ft 351 kts 34°
2026-04-26 00:07 -35.23440 -56.18776 12072 ft 365 kts 35°
2026-04-26 00:07 -35.21444 -56.16839 11373 ft 368 kts 35°
2026-04-26 00:08 -35.19447 -56.14903 10790 ft 366 kts 36°
2026-04-26 00:08 -35.17466 -56.12983 10225 ft 363 kts 36°
2026-04-26 00:08 -35.15501 -56.11078 9678 ft 359 kts 36°
2026-04-26 00:08 -35.13554 -56.09192 9127 ft 356 kts 37°
2026-04-26 00:09 -35.11627 -56.07331 8565 ft 352 kts 37°
2026-04-26 00:09 -35.09716 -56.05489 8024 ft 349 kts 37°
2026-04-26 00:09 -35.07825 -56.03668 7482 ft 345 kts 37°
2026-04-26 00:09 -35.05953 -56.01867 6932 ft 342 kts 37°
2026-04-26 00:10 -35.04099 -56.00085 6373 ft 338 kts 37°
2026-04-26 00:10 -35.02276 -55.98333 6049 ft 328 kts 37°
2026-04-26 00:10 -35.00550 -55.96676 5780 ft 307 kts 37°
2026-04-26 00:10 -34.98891 -55.95085 5298 ft 302 kts 37°
2026-04-26 00:11 -34.97252 -55.93510 4978 ft 298 kts 38°
2026-04-26 00:11 -34.95664 -55.91986 4931 ft 283 kts 38°
2026-04-26 00:11 -34.94173 -55.90551 4915 ft 267 kts 38°
2026-04-26 00:11 -34.92741 -55.89173 4773 ft 258 kts 38°
2026-04-26 00:12 -34.91369 -55.87854 4503 ft 248 kts 38°
2026-04-26 00:12 -34.90021 -55.86562 4078 ft 247 kts 38°
2026-04-26 00:12 -34.88681 -55.85278 3631 ft 244 kts 38°
2026-04-26 00:12 -34.87350 -55.84007 3187 ft 244 kts 38°
2026-04-26 00:13 -34.86023 -55.82738 2985 ft 242 kts 39°
2026-04-26 00:13 -34.84705 -55.81476 2974 ft 242 kts 39°
2026-04-26 00:13 -34.83383 -55.80216 2976 ft 242 kts 38°
2026-04-26 00:13 -34.81887 -55.79302 2975 ft 243 kts 14°
2026-04-26 00:14 -34.80220 -55.79181 2975 ft 242 kts 351°
2026-04-26 00:14 -34.78650 -55.79851 2986 ft 239 kts 328°
2026-04-26 00:14 -34.77356 -55.80991 2996 ft 222 kts 322°
2026-04-26 00:14 -34.76153 -55.82080 2999 ft 212 kts 322°
2026-04-26 00:15 -34.75006 -55.83154 2984 ft 204 kts 315°
2026-04-26 00:15 -34.74274 -55.84512 2971 ft 183 kts 288°
2026-04-26 00:15 -34.74080 -55.85969 2947 ft 169 kts 266°
2026-04-26 00:15 -34.74327 -55.87338 2836 ft 167 kts 245°
2026-04-26 00:16 -34.74941 -55.88523 2661 ft 166 kts 232°
2026-04-26 00:16 -34.75631 -55.89643 2451 ft 167 kts 232°
2026-04-26 00:16 -34.76324 -55.90775 2235 ft 168 kts 232°
2026-04-26 00:16 -34.77017 -55.91907 2005 ft 166 kts 232°
2026-04-26 00:17 -34.77692 -55.93011 1789 ft 159 kts 232°
2026-04-26 00:17 -34.78338 -55.94065 1590 ft 154 kts 233°
2026-04-26 00:17 -34.78966 -55.95092 1382 ft 148 kts 233°
2026-04-26 00:17 -34.79571 -55.96083 1184 ft 144 kts 232°
2026-04-26 00:18 -34.80159 -55.97043 999 ft 140 kts 232°
2026-04-26 00:18 -34.80737 -55.97984 798 ft 138 kts 233°
2026-04-26 00:18 -34.81300 -55.98918 627 ft 137 kts 233°
2026-04-26 00:18 -34.81866 -55.99842 418 ft 136 kts 233°
2026-04-26 00:19 -34.82427 -56.00765 214 ft 136 kts 233°
2026-04-26 00:19 -34.82951 -56.01623 104 ft 86 kts 233°
2026-04-26 00:19 -34.83124 -56.01909 97 ft 24 kts 233°
2026-04-26 00:19 -34.83229 -56.01958 94 ft 17 kts 150°
2026-04-26 00:20 -34.83305 -56.01891 98 ft 12 kts 143°
2026-04-26 00:20 -34.83381 -56.01822 97 ft 15 kts 143°
2026-04-26 00:20 -34.83484 -56.01760 96 ft 18 kts 190°
2026-04-26 00:20 -34.83542 -56.01779 94 ft 9 kts 109°
2026-04-26 00:21 -34.83588 -56.01716 94 ft 9 kts 141°
2026-04-26 00:21 -34.83596 -56.01709 94 ft 0 kts 141°